"Pseudo-MPEC" for C43DFK1

Created 2024 Sep 7 16:22:04 UT using Find_Orb

Click here for an explanation of pseudo-MPECs

 
 Astrometry: 
     C43DFK1* C2024 09 06.25194 22 35 19.58 -12 17 19.3    ~966bx      VNEOCP703
     C43DFK1  C2024 09 06.25422 22 35 26.63 -12 15 22.7    ~966bx18.4 GVNEOCP703
     C43DFK1  C2024 09 06.25648 22 35 33.82 -12 13 25.6    ~966bx18.4 GVNEOCP703
     C43DFK1  C2024 09 06.31368 22 38 33.65 -11 21 23.6    ~967q 18.5 GVNEOCP703
     C43DFK1  C2024 09 06.31421 22 38 35.36 -11 20 52.4    ~967q       VNEOCP703
     C43DFK1  C2024 09 06.31447 22 38 36.15 -11 20 38.4    ~967q 18.3 GVNEOCP703
     C43DFK1* C2024 09 06.32674122 40 17.081-11 11 17.41   ~96Eqx18.45gUNEOCPI41
     C43DFK1  C2024 09 06.32708822 40 18.213-11 10 56.78   ~96Eqx18.45gUNEOCPI41
     C43DFK1  C2024 09 06.32721422 40 18.271-11 10 45.96   ~96Eq 18.52gUNEOCPI41
     C43DFK1  C2024 09 06.32756122 40 19.499-11 10 25.56   ~96Eq 18.52gUNEOCPI41
     C43DFK1  C2024 09 06.34147 22 40 04.98 -10 54 17.4    ~968b 18.1 GVNEOCP703
     C43DFK1  C2024 09 06.34171 22 40 05.82 -10 54 02.8    ~968b 17.6 GVNEOCP703
     C43DFK1  C2024 09 06.34195 22 40 06.63 -10 53 48.0    ~968b 18.0 GVNEOCP703
     C43DFK1 KB2024 09 06.64765323 20 14.453-05 25 56.20   ~96Gb 17.3 VZNEOCPQ06
     C43DFK1 KB2024 09 06.65197023 20 36.844-05 20 14.61   ~96Gb 18.0 VZNEOCPQ06
     C43DFK1 KB2024 09 06.65628623 20 59.470-05 14 29.38   ~96Gb 18.3 VZNEOCPQ06
     C43DFK1 1C2024 09 06.92148 00 20 22.71 +01 28 14.4    ~96Mq 19.0 VXNEOCP033
     C43DFK1 1C2024 09 06.92181 00 20 27.29 +01 28 58.3    ~96Mq 19.1 VXNEOCP033
     C43DFK1 1C2024 09 06.92248 00 20 36.70 +01 30 28.2    ~96Mq 19.0 VXNEOCP033
     C43DFK1 1C2024 09 06.92296 00 20 43.32 +01 31 31.8    ~96Mq 18.8 VXNEOCP033

Station data:
(033) Karl Schwarzschild Observatory, Tautenburg  (N50.980139 E11.711240)
   Germany.  Observer B. Stecklum. 1.34-m f/3 Schmidt + CCD.
(703) Catalina Sky Survey  (N32.417029 W110.732640)  US/Arizona.  Observers
   T. A. Pruyne, B. M. Africano, E. J. Christensen, G. A. Farneth, D. C.
   Fuls, A. R. Gibbs, A. D. Grauer, H. Gröller, J. A. Johnson, R. A.
   Kowalski, S. M. Larson, G. J. Leonard, D. Rankin, R. L. Seaman, F. C.
   Shelly, K. W. Wierzchoś. 0.68 m Schmidt + 10K CCD.
(I41) Palomar Mountain--ZTF  (N33.357336 W116.859780)  US/California.
   Observers B. T. Bolin, Z. T. F. Collaboration. Measurers B. T. Bolin,
   Z.-Y. Lin, F. J. Masci. 1.2-m f/2.4 Schmidt.
(Q06) Tarui Observatory, Tarui  (N35.394791 E136.495470)  Japan.

Orbital elements:  C43DFK1
   Perigee 2024 Sep 7.30317 +/- 0.000126 TT =  7:16:34 (JD 2460560.80317)
Epoch 2024 Sep  7.0 TT = JDT 2460560.5                           AutoNEOCP
M 319.66728373 +/- 0.015            (J2000 equator)
n 133.03594711 +/- 0.0694           Peri.  150.98066 +/- 0.015
a 82027.1273 +/- 28.6               Node   355.86519 +/- 0.0008
e   0.7594120 +/- 7.36e-5           Incl.   31.49124 +/- 0.0009
P3896.618m/2.706d          H 33.39  G  0.15   U 10.9
q 19734.7421 +/- 12.2    Q 144319.512 +/- 45.6
15 of 20 observations 2024 Sept. 6 (14.6 hr); mean residual 1".21
Residuals in arcseconds: 
240906 703( 7.8+  9.5+)   240906 I41( 1.9+  3.6-)   240906 Q06  .21+  .36+    
240906 703( 5.2+  8.2+)   240906 I41  3.3-  .01+    240906 Q06  1.3+  1.0+    
240906 703( 5.8+  8.0+)   240906 I41  1.9-  .44+    240906 033  .59-  .49-    
240906 703  1.7+  .68+    240906 703  .82+  2.0-    240906 033  .73-  .51-    
240906 703  1.9+  1.5+    240906 703  1.2+  1.8-    240906 033  .46+  .07+    
240906 703  1.2+  .53+    240906 703  1.2+  1.3-    240906 033  .67-  .44-    
240906 I41( 2.0+  4.3-)   240906 Q06  .18-  .78+    

Ephemerides (geocentric):
Date (UTC) HH   RA             Dec           delta  r     elong  mag " sig PA
---- --------  ------------   ------------  ------ ------ -----  --- --------
2024 09 07 16  19 23 21.148   -29 02 21.89   84148 1.0079 122.8 19.2  154  77
2024 09 07 17  19 37 34.113   -28 17 04.71   89810 1.0080 126.0 19.3  148  76
2024 09 07 18  19 49 58.509   -27 32 26.93   95079 1.0080 128.8 19.3  143  74
2024 09 07 19  20 00 58.308   -26 48 52.73   99985 1.0080 131.3 19.4  140  73
2024 09 07 20  20 10 50.821   -26 06 31.15  104553 1.0080 133.6 19.4  137  72
2024 09 07 21  20 19 48.891   -25 25 23.46  108804 1.0081 135.7 19.4  134  71
2024 09 07 22  20 28 02.267   -24 45 26.94  112759 1.0081 137.6 19.4  132  70
2024 09 07 23  20 35 38.498   -24 06 36.90  116431 1.0081 139.4 19.5  130  69
2024 09 08 00  20 42 43.542   -23 28 47.77  119837 1.0081 141.1 19.5  129  68
2024 09 08 01  20 49 22.172   -22 51 53.67  122986 1.0082 142.7 19.5  128  68
2024 09 08 02  20 55 38.271   -22 15 48.75  125890 1.0082 144.2 19.5  127  67
2024 09 08 03  21 01 35.040   -21 40 27.31  128558 1.0082 145.7 19.5  126  67
2024 09 08 04  21 07 15.151   -21 05 43.92  130998 1.0082 147.1 19.5  126  66
2024 09 08 05  21 12 40.859   -20 31 33.38  133216 1.0082 148.4 19.5  125  65
2024 09 08 06  21 17 54.094   -19 57 50.75  135219 1.0082 149.8 19.5  125  65
2024 09 08 07  21 22 56.517   -19 24 31.34  137012 1.0082 151.0 19.5  125  65
2024 09 08 08  21 27 49.583   -18 51 30.64  138600 1.0083 152.3 19.5  126  64
2024 09 08 09  21 32 34.573   -18 18 44.33  139986 1.0083 153.5 19.5  126  64
2024 09 08 10  21 37 12.629   -17 46 08.19  141173 1.0083 154.7 19.4  126  63
2024 09 08 11  21 41 44.781   -17 13 38.13  142166 1.0083 155.8 19.4  127  63
2024 09 08 12  21 46 11.969   -16 41 10.09  142965 1.0083 157.0 19.4  128  63
2024 09 08 13  21 50 35.061   -16 08 40.04  143573 1.0083 158.1 19.4  129  62
2024 09 08 14  21 54 54.867   -15 36 03.93  143991 1.0083 159.3 19.4  130  62
2024 09 08 15  21 59 12.154   -15 03 17.63  144219 1.0083 160.4 19.3  131  62
2024 09 08 16  22 03 27.658   -14 30 16.93  144260 1.0083 161.5 19.3  133  62
2024 09 08 17  22 07 42.095   -13 56 57.43  144112 1.0083 162.6 19.2  134  61
2024 09 08 18  22 11 56.171   -13 23 14.57  143775 1.0082 163.8 19.2  136  61
2024 09 08 19  22 16 10.593   -12 49 03.48  143249 1.0082 164.9 19.2  138  61
2024 09 08 20  22 20 26.080   -12 14 19.01  142532 1.0082 166.1 19.1  141  60
2024 09 08 21  22 24 43.373   -11 38 55.58  141624 1.0082 167.2 19.0  144  60
2024 09 08 22  22 29 03.246   -11 02 47.12  140521 1.0082 168.4 19.0  147  60
2024 09 08 23  22 33 26.523   -10 25 46.98  139221 1.0082 169.6 18.9  150  60
2024 09 09 00  22 37 54.088   -09 47 47.81  137721 1.0082 170.8 18.8  154  60
2024 09 09 01  22 42 26.908   -09 08 41.38  136018 1.0082 172.1 18.8  158  59
2024 09 09 02  22 47 06.051   -08 28 18.43  134107 1.0081 173.4 18.7  163  59
2024 09 09 03  22 51 52.715   -07 46 28.44  131983 1.0081 174.7 18.6  169  59
2024 09 09 04  22 56 48.262   -07 02 59.33  129641 1.0081 176.1 18.5  175  59
2024 09 09 05  23 01 54.254   -06 17 37.16  127075 1.0081 177.5 Sha   183  59
2024 09 09 06  23 07 12.517   -05 30 05.60  124276 1.0080 179.0 Sha   191  59
2024 09 09 07  23 12 45.204   -04 40 05.42  121236 1.0080 179.3 Sha   200  59
2024 09 09 08  23 18 34.897   -03 47 13.68  117946 1.0080 177.7 Sha   212  58
2024 09 09 09  23 24 44.732   -02 51 02.71  114394 1.0079 176.0 18.2  225  58
2024 09 09 10  23 31 18.585   -01 50 58.75  110568 1.0079 174.1 18.2  240  58
2024 09 09 11  23 38 21.327   -00 46 19.97  106452 1.0078 172.1 18.2  259  58
2024 09 09 12  23 45 59.203   +00 23 46.12  102030 1.0078 169.9 18.2  281  58
2024 09 09 13  23 54 20.391   +01 40 26.60   97280 1.0078 167.5 18.2  309  58
2024 09 09 14  00 03 35.881   +03 05 08.73   92180 1.0077 164.8 18.2  343  58
2024 09 09 15  00 14 00.884   +04 39 48.47   86702 1.0076 161.8 18.2  388  59